This is the latest recevied weather packets stored in our database for station/object HS2LXA-13. If no packets are shown the sender has not sent any weather packets the latest 10 day(s).
| Time | Temp. | Humidity | Pressure | Rain* | Wind** | Luminosity | Snow |
|---|---|---|---|---|---|---|---|
| 1777702327 | 35° C | 73% | 1009.6 hPa | 0 mm | - | 0 W/m² | - |
| 1777701727 | 35.56° C | 71% | 1009.6 hPa | 0 mm | - | 0 W/m² | - |
| 1777701127 | 35° C | 72% | 1009.9 hPa | 0 mm | - | 0 W/m² | - |
| 1777700524 | 35.56° C | 73% | 1010 hPa | 0 mm | - | 0 W/m² | - |
| 1777699927 | 35° C | 73% | 1010.2 hPa | 0 mm | - | 0 W/m² | - |
| 1777699323 | 35° C | 74% | 1010.2 hPa | 0 mm | - | 0 W/m² | - |
| 1777698722 | 35.56° C | 75% | 1010.5 hPa | 0 mm | - | 0 W/m² | - |
| 1777698118 | 35.56° C | 76% | 1010.6 hPa | 0 mm | - | 0 W/m² | - |
| 1777697518 | 36.11° C | 76% | 1010.7 hPa | 0 mm | - | 0 W/m² | - |
| 1777696918 | 35° C | 76% | 1010.8 hPa | 0 mm | - | 0 W/m² | - |
| 1777696322 | 35.56° C | 77% | 1011 hPa | 0 mm | - | 0 W/m² | - |
| 1777695714 | 35° C | 76% | 1011.1 hPa | 0 mm | - | 0 W/m² | - |
| 1777695114 | 35° C | 73% | 1011.2 hPa | 0 mm | - | 0 W/m² | - |
| 1777694512 | 35° C | 74% | 1011.1 hPa | 0 mm | - | 0 W/m² | - |
| 1777693911 | 34.44° C | 73% | 1011.1 hPa | 0 mm | - | 0 W/m² | - |
| 1777693309 | 35° C | 74% | 1011.2 hPa | 0 mm | - | 0 W/m² | - |
| 1777692707 | 34.44° C | 74% | 1011.2 hPa | 0 mm | - | 0 W/m² | - |
| 1777692100 | 35° C | 75% | 1011.1 hPa | 0 mm | - | 0 W/m² | - |
| 1777691498 | 35° C | 75% | 1011.2 hPa | 0 mm | - | 0 W/m² | - |
| 1777690897 | 34.44° C | 76% | 1011.2 hPa | 0 mm | - | 0 W/m² | - |
| 1777690296 | 34.44° C | 80% | 1011.1 hPa | 0 mm | - | 0 W/m² | - |
| 1777689691 | 33.89° C | 80% | 1011.2 hPa | 0 mm | - | 0 W/m² | - |
| 1777689089 | 33.33° C | 81% | 1011.2 hPa | 0 mm | - | 0 W/m² | - |
| 1777688487 | 32.78° C | 81% | 1011.2 hPa | 0 mm | - | 0 W/m² | - |
| 1777687886 | 32.22° C | 80% | 1011.3 hPa | 0 mm | - | 0 W/m² | - |
* Rain latest hour (hover to see other rain measurements)
** Current wind speed in m/s (hover to see current wind gust speed)